Regional Weather Roundup
Issued by NWS

Home | Current Version | Previous Version | Text Only | Print | Product List | Glossary Off
Versions: 1 2 3 4 5 6 7 8 9 10 11 12 13 14 15 16 17 18 19 20 21 22 23 24 25 26 27

000
ASUS43 KDMX 181107
RWRIA

WEATHER ROUNDUP FOR IOWA
NATIONAL WEATHER SERVICE DES MOINES IA
600 AM CDT FRI APR 18 2014

NOTE: "FAIR" INDICATES FEW OR NO CLOUDS BELOW 12,000 FEET WITH NO
SIGNIFICANT WEATHER AND/OR OBSTRUCTIONS TO VISIBILITY.

* - THESE STATIONS ARE NOT NWS STATIONS...THUS NOT UNDER NWS
QUALITY CONTROL.  THEY ALSO DO NOT REPORT WEATHER SUCH
AS PRECIPITATION OR FOG.

IAZ001>003-012>014-020>022-031>034-043>046-181200-
   NORTHWEST IOWA

CITY           SKY/WX    TMP DP  RH WIND       PRES   REMARKS
CARROLL *      CLOUDY    27  27 100 CALM      30.29S FOG
CHEROKEE *     CLEAR     30  27  86 SE5       30.28R WCI  25
DENISON *      PTCLDY    34  30  86 VRB5G12   30.26S WCI  30
LE MARS *      MOCLDY    34  28  80 SE8       30.26R WCI  27
ORANGE CITY *  PTCLDY    34  27  75 E5        30.26R WCI  30
SHELDON *      PTCLDY    28  28 100 E9        30.25F FOG     WCI  20
SIOUX CITY     CLEAR     30  26  85 SE7       30.25S WCI  23
SPENCER        CLOUDY    31  28  89 SE8       30.29R WCI  23
STORM LAKE *   MIX PCPN  28  28 100 SE10      30.28S WCI  19
$$

IAZ055>058-069>071-079>083-090>094-181200-
   SOUTHWEST IOWA

CITY           SKY/WX    TMP DP  RH WIND       PRES   REMARKS
ATLANTIC *     PTCLDY    32  28  86 N5        30.28S WCI  27
AUDUBON *      CLEAR     28  25  86 CALM      30.29S
CLARINDA *     CLEAR     28  27  93 N3        30.30R
COUNCIL BLFS * MOCLDY    34  27  75 SE6       30.25S WCI  29
CRESTON *      CLEAR     32  28  86 E8        30.29R WCI  25
HARLAN  *      CLEAR     32  28  86 CALM      30.31S
LAMONI         CLEAR     35  30  82 E6        30.28S WCI  30
RED OAK *      CLEAR     30  27  86 CALM      30.28R
SHENANDOAH *   MOCLDY    28  28 100 NE3       30.29R
$$

IAZ047>049-059>061-072>074-084-181200-
   CENTRAL IOWA

CITY           SKY/WX    TMP DP  RH WIND       PRES   REMARKS
AMES           CLEAR     30  27  88 CALM      30.32R FOG
ANKENY *       CLEAR     30  28  93 CALM      30.32R
CHARITON *     CLEAR     32  30  93 E6        30.30S WCI  26
DES MOINES     PTCLDY    35  29  78 E5        30.32R WCI  31
GRINNELL*      CLEAR     30  28  93 NE8       30.32R WCI  23
KNOXVILLE *    CLEAR     32  28  86 E5        30.31S WCI  27
MARSHALLTOWN   CLEAR     28  25  88 E6        30.32R FOG     WCI  22
NEWTON *       CLEAR     30  28  93 E5        30.33R WCI  25
PELLA *        CLEAR     28  27  93 CALM      30.33S FOG
PERRY *          N/A     32  28  86 E3        30.31S FOG
$$

IAZ004>006-015-016-023>025-035-036-181200-
   NORTH CENTRAL IOWA

CITY           SKY/WX    TMP DP  RH WIND       PRES   REMARKS
ALGONA *       PTCLDY    30  28  93 SE6       30.32R WCI  24
CLARION *      CLEAR     28  27  93 SE5       30.32R WCI  23
ESTHERVILLE    CLOUDY    29  29 100 SE8       30.29R FOG     WCI  21
FORT DODGE *   CLOUDY    28  25  86 E5        30.31S WCI  23
MASON CITY     CLOUDY    28  28 100 CALM      30.33S FOG
FOREST CITY *  CLOUDY    32  32 100 CALM      30.31S
IOWA FALLS *     N/A     28  27  93 NE5       30.33S FOG     WCI  23
$$

IAZ007>011-017>019-026>030-037>042-050>054-066-181200-
   NORTHEAST IOWA

CITY           SKY/WX    TMP DP  RH WIND       PRES   REMARKS
CEDAR RAPIDS   CLEAR     28  32 100 N3        30.31R HAZE
CHARLES CITY * PTCLDY    28  27  93 E6        30.33S FOG     WCI  22
CLINTON *      CLEAR     28  25  86 N10       30.34R WCI  19
DECORAH *      CLEAR     27  27 100 CALM      30.34R FOG
DUBUQUE        CLEAR     29  27  92 N7        30.31R WCI  22
MONTICELLO *   CLEAR     28  28 100 N5        30.32R WCI  23
OELWEIN *      CLEAR    N/A N/A N/A NE6       30.34R
WATERLOO       CLEAR     26  24  92 CALM      30.34R FOG
$$

IAZ064-065-067-068-078-181200-
   EAST CENTRAL IOWA

CITY           SKY/WX    TMP DP  RH WIND       PRES   REMARKS
DAVENPORT      CLEAR     29  26  89 N6        30.33R FOG     WCI  23
IOWA CITY      CLEAR     31  28  89 CALM      30.34R
MT. PLEASANT * CLEAR     32  30  93 N5        30.32R FOG     WCI  27
MUSCATINE *    MOCLDY    30  28  93 CALM      30.34R
QUAD CITIES    CLEAR     31  27  85 CALM      30.32R
$$

IAZ062-063-075>077-085>089-095>099-181200-
   SOUTHEAST IOWA

CITY           SKY/WX    TMP DP  RH WIND       PRES   REMARKS
BURLINGTON     CLEAR     34  31  88 N6        30.31R WCI  29
FAIRFIELD *    CLEAR     30  28  93 CALM      30.32S FOG
FORT MADISON * CLEAR     32  30  93 N5        30.32R WCI  27
KEOKUK *       CLEAR     36  32  87 N7        30.31R WCI  30
OSKALOOSA *      N/A     30  28  93 CALM      30.32S FOG
CENTERVILLE *  CLEAR     32  32 100 E5        30.32R WCI  27
OTTUMWA        CLEAR     32  28  85 NE6       30.31S WCI  26
WASHINGTON *   CLEAR     30  30 100 N5        30.33R FOG     WCI  25
$$

ABBREVIATIONS USED IN REMARKS
   TC - TEMPERATURES IN CELSIUS
  WCI - WIND CHILL INDEX
   HX - HEAT INDEX
  VSB - VISIBILITY
$$




USA.gov is the U.S. government's official web portal to all federal, state and local government web resources and services.